This is the latest recevied weather packets stored in our database for station/object KJ4RDP-13. If no packets are shown the sender has not sent any weather packets the latest 10 day(s).
| Time | Temp. | Humidity | Pressure | Rain* | Wind** | Luminosity | Snow |
|---|---|---|---|---|---|---|---|
| 1778007069 | 21.67° C | 47% | 1014.9 hPa | 0 mm | - | 471 W/m² | - |
| 1778006766 | 22.22° C | 47% | 1014.6 hPa | 0 mm | - | 426 W/m² | - |
| 1778006463 | 21.67° C | 48% | 1014.9 hPa | 0 mm | - | 447 W/m² | - |
| 1778006159 | 21.67° C | 46% | 1015.2 hPa | 0 mm | - | 584 W/m² | - |
| 1778005857 | 22.78° C | 48% | 1014.9 hPa | 0 mm | - | 448 W/m² | - |
| 1778005553 | 22.22° C | 48% | 1014.9 hPa | 0 mm | - | 543 W/m² | - |
| 1778005250 | 21.67° C | 48% | 1015.2 hPa | 0 mm | - | 642 W/m² | - |
| 1778004947 | 22.22° C | 46% | 1014.9 hPa | 0 mm | - | 544 W/m² | - |
| 1778004644 | 22.22° C | 43% | 1015.2 hPa | 0 mm | - | 684 W/m² | - |
| 1778004339 | 22.22° C | 45% | 1015.2 hPa | 0 mm | - | 723 W/m² | - |
| 1778004038 | 22.78° C | 43% | 1015.2 hPa | 0 mm | - | 703 W/m² | - |
| 1778003738 | 22.78° C | 46% | 1015.2 hPa | 0 mm | - | 684 W/m² | - |
| 1778003435 | 22.78° C | 44% | 1015.2 hPa | 0 mm | - | 693 W/m² | - |
| 1778003132 | 21.67° C | 45% | 1015.7 hPa | 0 mm | - | 686 W/m² | - |
| 1778002828 | 22.22° C | 48% | 1015.7 hPa | 0 mm | - | 646 W/m² | - |
| 1778002525 | 22.22° C | 46% | 1016 hPa | 0 mm | - | 684 W/m² | - |
| 1778002222 | 21.67° C | 45% | 1015.7 hPa | 0 mm | - | 693 W/m² | - |
| 1778001920 | 22.22° C | 44% | 1015.7 hPa | 0 mm | - | 638 W/m² | - |
| 1778001615 | 22.22° C | 42% | 1015.7 hPa | 0 mm | - | 598 W/m² | - |
| 1778001311 | 21.67° C | 40% | 1016 hPa | 0 mm | - | 601 W/m² | - |
| 1778001008 | 21.67° C | 46% | 1016 hPa | 0 mm | - | 730 W/m² | - |
| 1778000705 | 21.11° C | 44% | 1015.7 hPa | 0 mm | - | 784 W/m² | - |
| 1778000400 | 21.11° C | 42% | 1015.7 hPa | 0 mm | - | 358 W/m² | - |
| 1778000096 | 21.67° C | 42% | 1016 hPa | 0 mm | - | 688 W/m² | - |
| 1777999791 | 21.67° C | 45% | 1015.7 hPa | 0 mm | - | 762 W/m² | - |
* Rain latest hour (hover to see other rain measurements)
** Current wind speed in m/s (hover to see current wind gust speed)